Tracking 31030 objects as of 16-Jul-2025
HD Live streaming from Space Station
objects crossing your sky now

CZ-6A DEB

Track CZ-6A DEB now!
10-day predictions


NORAD ID: 54427
Int'l Code: 2022-151FB
Perigee: 826.0 km
Apogee: 1,083.5 km
Inclination: 99.0 °
Period: 104.0 minutes
Semi major axis: 7325 km
RCS: Unknown
Launch date: November 11, 2022
Source: People's Republic of China (PRC)
Launch site: Taiyaun Space Center, China (TSC)

Note: This is SATELLITE DEBRIS
Your satellite tracking list
Your tracking list is empty




NASA's NSSDC Master Catalog

Two Line Element Set (TLE):
1 54427U 22151FB  25197.49224360  .00000687  00000-0  57610-3 0  9990
2 54427  99.0108 173.4285 0175785 343.9764  15.5875 13.84607884134839
Source of the keplerian elements: AFSPC